Regional Weather Roundup
Issued by NWS

Home | Current Version | Previous Version | Text Only | Print | Product List | Glossary Off
Versions: 1 2 3 4 5 6 7 8 9 10 11 12 13 14 15 16 17 18 19 20 21 22 23 24 25 26 27 28 29 30 31 32 33 34 35 36 37 38 39 40 41 42 43 44 45 46 47 48 49 50

608
ASUS44 KJAN 290103
RWRMS

MISSISSIPPI HOURLY WEATHER ROUNDUP
NATIONAL WEATHER SERVICE JACKSON MS
800 PM CDT MON JUL 28 2014

NOTE: "FAIR: INDICATES FEW OR NO CLOUDS BELOW 12,000 FEET WITH NO
SIGNIFICANT WEATHER AND/OR OBSTRUCTIONS TO VISIBILITY.

MSZ001>002-007>008-010>013-018>021-025>028-034>036-290200-
NORTHWEST MISSISSIPPI

CITY           SKY/WX    TMP DP  RH WIND       PRES   REMARKS
CLARKSDALE     FAIR      75  70  83 NW3       30.04R
CLEVELAND      FAIR      75  69  82 N6        30.03R
GREENWOOD      CLEAR     77  65  66 NW5       30.02R
GREENVILLE     PTCLDY    78  68  71 CALM      30.04R
GRENADA        FAIR      75  64  69 CALM      30.03R
OLIVE BRANCH   PTCLDY    73  68  83 N7        30.03S
OXFORD         FAIR      75  63  64 N3        30.04S
TUNICA         CLEAR     77  64  65 CALM      30.03S
$$

MSZ003>006-009-014>017-022>024-029>033-037>039-290200-
NORTHEAST MISSISSIPPI

CITY           SKY/WX    TMP DP  RH WIND       PRES   REMARKS
BELMONT        FAIR      75  65  71 CALM      30.02R
COLUMBUS AFB   CLEAR     78  64  63 N6        30.00R
CORINTH        FAIR      75  64  69 NW3       30.01S
GOLDN TRIANGLE CLEAR     77  64  65 N6        30.00R
STARKVILLE     FAIR      79  64  61 NW3       30.01R
TUPELO         CLEAR     78  63  59 N7        30.01R
$$

MSZ040-058-290200-
CENTRAL MISSISSIPPI

CITY           SKY/WX    TMP DP  RH WIND       PRES   REMARKS
JACKSON INTL   PTCLDY    83  64  52 NW9       30.02R
JACKSON HAWKNS CLEAR     83  64  52 N5        30.03R
MERIDIAN KEY   CLEAR     82  66  58 N6        29.98R
MERIDIAN NAS   PTCLDY    82  64  54 N6        29.98R
RAYMOND        FAIR      81  75  83 NW3       30.02R
VICKSBURG      CLEAR     80  70  71 N3        30.03R
$$

MSZ059>079-290200-
SOUTH MISSISSIPPI

CITY           SKY/WX    TMP DP  RH WIND       PRES   REMARKS
BROOKHAVEN     FAIR      82  73  74 CALM      30.02S
COLUMBIA       FAIR      84  77  79 CALM      29.98R HX  94
HATTIESBURG    CLEAR     87  74  64 NW8       29.98R HX  95
MCCOMB         PTCLDY    81  73  76 NW6       30.00S
NATCHEZ        MOCLDY    81  73  78 NW3       30.03R
PINE BELT      CLEAR     84  72  65 NW6       30.00R
$$

MSZ080>082-290200-
COASTAL MISSISSIPPI

CITY           SKY/WX    TMP DP  RH WIND       PRES   REMARKS
BAY ST LOUIS   PTCLDY   N/A N/A N/A CALM      29.97R
BILOXI         PTCLDY    87  77  70 VRB5      29.96R HX  99
PASCAGOULA     MOCLDY    84  77  79 CALM      29.95R HX  94
GULFPORT       PTCLDY    89  76  65 W5        29.96R HX 100
$$



USA.gov is the U.S. government's official web portal to all federal, state and local government web resources and services.